sat.trackr.live / text

‹ back to catalog

EZIE-A

NORAD 63247 · 2025-052AP

PAYLOAD ACTIVE UNKNOWN

§ Identity

Operator
Country
US
Launch date
2025-03-15
Launch site
AFWTR
Launch vehicle
Mass (kg)
RCS (m²)

External: N2YO · Heavens-Above · Gunter

§ Orbital elements

Epoch: 2026-09-22T22:13:54.919776Z

Period
96.13 min
Inclination
97.6767°
Eccentricity
0.0001373
Mean motion
14.97937064 rev/d
Perigee alt
572.3 km
Apogee alt
574.2 km
Semi-major
6,951.4 km
B*
2.2744e-4
RAAN
156.4980°
Arg perigee
184.1508°
Mean anomaly
175.9703°
Rev number
8,329

§ Raw data

EZIE-A1 63247U 25052AP  26265.92633009  .00002623  00000+0  22744-3 0  99932 63247  97.6767 156.4980 0001373 184.1508 175.9703 14.97937064 83294

JSON: /api/v1/satellites/63247 · /tle

For live sub-satellite position, see the globe view (requires WebGL).

§ Visibility from observer

Set your observer location to see the next 7 days of passes ≥ 10°. The values pass through the URL so the page stays shareable.

No JS? Fill the form by hand. The geolocation button needs JavaScript.

§ Radio — SatNOGS DB

ModeDescriptionDownlinkUplink
FM Mode S - Transmitter 1 2.211 GHz
FM Mode S - Transmitter 2 2.218 GHz
FM Mode S - Transmitter 3 2.268 GHz

3 transmitters · refreshed weekly from db.satnogs.org